map of KHG home
Great Circle Mapper logo
KHG - Airport
Location
City:  Kashgar, Xinjiang Uyghur, China
Near (Alt.):Kashi
ICAO / IATA:ZWSH / KHG

Details
Type:Airport (Aerodrome, Airfield)
Use:Public/Civil
Latitude:3932'35"N (39.542922)
Longitude:7601'12"E (76.019956)
Datum:WGS 1984
Elevation:4529 ft (1380 m)
Variation:3.88E (WMM2015 magnetic declination)
0.05 annual change
Runways:1
Longest:10499 × 135 ft (3200 × 41 m), paved

Time
Time Zone:UTC+8
Local Time:

Weather
METAR:ZWSH 042200Z 31007MPS 9999 BKN040 29/M04 Q1008 NOSIG
TAF:ZWSH 042133Z 0500/0524 31004G09MPS 9999 SCT040 TX35/0509Z TN26/0500Z
BECMG 0505/0506 09004MPS
BECMG 0513/0514 31004MPS

Related Locations
Nearby:
Farthest:IPC: 11523 mi / 18544 km
Easter Island (Isla de Pascua, Rapa Nui) [Mataveri Intl], VS, CL

Find:

   beyond  
but within

Other Information
Maps:
NOTAMs:
Links:
Sources:

  
flag of China   

Sectional Chart

Flight Planning
at skyvector.com

Satellite Image

Google Maps Satellite view

 

Copyright © 2004-2015 Karl L. Swartz. All rights reserved.
The Great Circle Mapper name and logo are trademarks of the Great Circle Mapper.
All other trademarks mentioned herein belong to their respective owners.
Please see credits for attibutions and further copyright information.

  Follow gcmap on Facebook Follow gcmap on Twitter Follow gcmap on Google+

hCard Microformat

Geo Microformat